Location: Córrego Montividiu
(13.2496°S, 48.8603°W)
Time: 19:09:42
(UTC+00:00)

Palapa 6 Rocket - Pass Details

Date: 11 March 2026
Orbit: 481 x 1155 km, 22.7° (Epoch: 16 April)

Event Time Altitude Azimuth Distance (km) Brightness Sun altitude
Rises 22:33:06 0° 250° (WSW) 2,529 7.8 -15.6°
Reaches altitude 10° 22:35:15 10° 249° (WSW) 1,653 6.5 -16.1°
Maximum altitude 22:38:59 86° 159° (SSE) 503 2.5 -17.1°
Enters shadow 22:40:20 40° 74° (ENE) 763 3.0 -17.4°
